Perryton, TX

8:09 PM CST on December 17, 2017 (GMT -0600)
Perryton Ochiltree County

Weather History for KPYX - January, 2013

Change the Weather History Date:

Monday, January 7, 2013

  Actual Average Record
Temperature  
Mean Temperature 40 °F -  
Max Temperature 50 °F 44 °F 80 °F (2006)
Min Temperature 30 °F 14 °F -17 °F (1988)
Degree Days  
Heating Degree Days 25    
Moisture  
Dew Point 26 °F    
Average Humidity 66    
Maximum Humidity 80    
Minimum Humidity 40    
Precipitation  
Precipitation 0.00 in - - ()
Sea Level Pressure  
Sea Level Pressure 30.06 in    
Wind  
Wind Speed 13 mph (SSW)    
Max Wind Speed 22 mph    
Max Gust Speed 28 mph    
Visibility 10 miles    
Events      
Averages and records for this station are not official NWS values.
T = Trace of Precipitation, MM = Missing Value Source: NWS Daily Summary

Daily Weather History Graph

Daily Weather History Graph

Search for Another Location

Airport or City:

Trip Planner

Search our weather history database for the weather conditions in past years. The results will help you decide how hot, cold, wet, or windy it might be!

Date:

Astronomy

Jan. 07, 2013 Rise Set
Actual Time 7:55 AM CST 5:43 PM CST
Civil Twilight 7:26 AM CST 6:12 PM CST
Nautical Twilight 6:54 AM CST 6:44 PM CST
Astronomical Twilight 6:23 AM CST 7:15 PM CST
Moon 3:22 AM CST (1/7) 1:55 PM CST (1/7)
Length of Visible Light 10h 45m
Length of Day
9h 48m
Waning Crescent, 22% of the Moon is Illuminated
Jan 7
Waning Crescent
Jan 11
New
Jan 18
First Quarter
Jan 26
Full
Feb 3
Last Quarter

Hourly Weather History & Observations

Time (CST) Temp. Windchill Dew Point Humidity Pressure Visibility Wind Dir Wind Speed Gust Speed Precip Events Conditions
12:15 AM 32.0 °F 21.6 °F 24.8 °F 75% 30.18 in 10.0 mi South 15.0 mph - N/A   Clear
12:35 AM 32.0 °F 21.6 °F 24.8 °F 75% 30.18 in 10.0 mi South 15.0 mph - N/A   Clear
12:55 AM 32.0 °F 22.1 °F 23.0 °F 69% 30.17 in 10.0 mi South 13.8 mph - N/A   Clear
1:15 AM 32.0 °F 22.5 °F 24.8 °F 75% 30.17 in 10.0 mi South 12.7 mph - N/A   Clear
1:35 AM 32.0 °F 21.6 °F 23.0 °F 69% 30.17 in 10.0 mi South 15.0 mph - N/A   Clear
1:55 AM 32.0 °F 22.5 °F 23.0 °F 69% 30.17 in 10.0 mi South 12.7 mph - N/A   Clear
2:15 AM 32.0 °F 23.6 °F 23.0 °F 69% 30.17 in 10.0 mi South 10.4 mph - N/A   Clear
2:35 AM 30.2 °F 21.9 °F 23.0 °F 75% 30.16 in 10.0 mi South 9.2 mph - N/A   Clear
2:55 AM 30.2 °F 22.6 °F 23.0 °F 75% 30.16 in 10.0 mi SSW 8.1 mph - N/A   Clear
3:15 AM 32.0 °F 23.0 °F 24.8 °F 75% 30.16 in 10.0 mi SSW 11.5 mph - N/A   Clear
3:35 AM 32.0 °F 23.0 °F 23.0 °F 69% 30.15 in 10.0 mi SSW 11.5 mph - N/A   Clear
3:55 AM 32.0 °F 23.0 °F 23.0 °F 69% 30.14 in 10.0 mi SSW 11.5 mph - N/A   Clear
4:15 AM 32.0 °F 23.6 °F 23.0 °F 69% 30.14 in 10.0 mi South 10.4 mph - N/A   Clear
4:55 AM 32.0 °F 24.2 °F 24.8 °F 75% 30.12 in 10.0 mi SSW 9.2 mph - N/A   Clear
5:15 AM 32.0 °F 22.1 °F 24.8 °F 75% 30.12 in 10.0 mi SSW 13.8 mph - N/A   Clear
5:35 AM 32.0 °F 23.0 °F 24.8 °F 75% 30.11 in 10.0 mi SSW 11.5 mph - N/A   Clear
5:55 AM 32.0 °F 22.1 °F 24.8 °F 75% 30.11 in 10.0 mi SW 13.8 mph - N/A   Clear
6:15 AM 32.0 °F 21.6 °F 24.8 °F 75% 30.11 in 10.0 mi SSW 15.0 mph - N/A   Clear
6:35 AM 32.0 °F 22.5 °F 24.8 °F 75% 30.11 in 10.0 mi SW 12.7 mph - N/A   Clear
6:55 AM 32.0 °F 22.5 °F 24.8 °F 75% 30.12 in 10.0 mi SW 12.7 mph - N/A   Clear
7:15 AM 33.8 °F 24.3 °F 24.8 °F 70% 30.11 in 10.0 mi SSW 13.8 mph - N/A   Clear
7:35 AM 33.8 °F 23.9 °F 24.8 °F 70% 30.11 in 10.0 mi SSW 15.0 mph - N/A   Clear
7:55 AM 33.8 °F 23.9 °F 24.8 °F 70% 30.11 in 10.0 mi SSW 15.0 mph - N/A   Clear
8:15 AM 33.8 °F 23.5 °F 24.8 °F 70% 30.11 in 10.0 mi SSW 16.1 mph - N/A   Clear
8:35 AM 33.8 °F 23.2 °F 24.8 °F 70% 30.11 in 10.0 mi SSW 17.3 mph - N/A   Clear
8:55 AM 33.8 °F 23.2 °F 24.8 °F 70% 30.11 in 10.0 mi SSW 17.3 mph 21.9 mph N/A   Clear
9:15 AM 33.8 °F 23.9 °F 24.8 °F 70% 30.11 in 10.0 mi SSW 15.0 mph 21.9 mph N/A   Clear
9:35 AM 35.6 °F 25.9 °F 26.6 °F 70% 30.11 in 10.0 mi SSW 16.1 mph - N/A   Clear
9:55 AM 37.4 °F 28.2 °F 26.6 °F 65% 30.12 in 10.0 mi SSW 16.1 mph - N/A   Clear
10:15 AM 37.4 °F 27.5 °F 26.6 °F 65% 30.12 in 10.0 mi SSW 18.4 mph - N/A   Clear
10:35 AM 41.0 °F 32.5 °F 26.6 °F 57% 30.12 in 10.0 mi SSW 17.3 mph 25.3 mph N/A   Clear
10:55 AM 41.0 °F 31.4 °F 26.6 °F 57% 30.12 in 10.0 mi SSW 21.9 mph 27.6 mph N/A   Clear
11:35 AM 42.8 °F 34.5 °F 28.4 °F 57% 30.10 in 10.0 mi SSW 18.4 mph 26.5 mph N/A   Clear
11:55 AM 42.8 °F 34.3 °F 26.6 °F 53% 30.10 in 10.0 mi SSW 19.6 mph 27.6 mph N/A   Clear
12:15 PM 44.6 °F 37.4 °F 26.6 °F 49% 30.09 in 10.0 mi SW 16.1 mph 24.2 mph N/A   Clear
12:35 PM 44.6 °F 37.2 °F 26.6 °F 49% 30.07 in 10.0 mi SW 17.3 mph 21.9 mph N/A   Clear
1:15 PM 46.4 °F 39.5 °F 28.4 °F 50% 30.04 in 10.0 mi SW 17.3 mph 21.9 mph N/A   Clear
1:55 PM 48.2 °F - 28.4 °F 46% 30.02 in 10.0 mi SW 15.0 mph - N/A   Clear
2:15 PM 50.0 °F - 26.6 °F 40% 30.01 in 10.0 mi SW 17.3 mph 20.7 mph N/A   Clear
2:35 PM 50.0 °F - 26.6 °F 40% 30.00 in 10.0 mi SW 16.1 mph - N/A   Clear
2:55 PM 50.0 °F - 26.6 °F 40% 30.00 in 10.0 mi SW 13.8 mph - N/A   Clear
3:15 PM 50.0 °F - 28.4 °F 43% 30.00 in 10.0 mi SW 10.4 mph - N/A   Clear
3:35 PM 50.0 °F - 28.4 °F 43% 29.99 in 10.0 mi SSW 11.5 mph - N/A   Clear
3:55 PM 50.0 °F - 28.4 °F 43% 29.99 in 10.0 mi SSW 9.2 mph - N/A   Clear
4:15 PM 50.0 °F - 28.4 °F 43% 29.99 in 10.0 mi SSW 10.4 mph - N/A   Clear
4:35 PM 48.2 °F - 26.6 °F 43% 29.98 in 10.0 mi SSW 13.8 mph - N/A   Clear
5:15 PM 46.4 °F 41.9 °F 28.4 °F 50% 29.97 in 10.0 mi South 9.2 mph - N/A   Clear
5:35 PM 42.8 °F 37.5 °F 28.4 °F 57% 29.97 in 10.0 mi SSW 9.2 mph - N/A   Clear
5:55 PM 41.0 °F 35.2 °F 28.4 °F 61% 29.98 in 10.0 mi SSW 9.2 mph - N/A   Clear
6:15 PM 37.4 °F 30.8 °F 28.4 °F 70% 29.97 in 10.0 mi South 9.2 mph - N/A   Clear
6:35 PM 37.4 °F 31.4 °F 28.4 °F 70% 29.98 in 10.0 mi South 8.1 mph - N/A   Clear
6:55 PM 35.6 °F 28.6 °F 28.4 °F 75% 29.97 in 10.0 mi South 9.2 mph - N/A   Clear
7:15 PM 35.6 °F 28.6 °F 28.4 °F 75% 29.97 in 10.0 mi SSE 9.2 mph - N/A   Clear
7:35 PM 35.6 °F 29.2 °F 28.4 °F 75% 29.98 in 10.0 mi South 8.1 mph - N/A   Clear
7:55 PM 35.6 °F 29.2 °F 28.4 °F 75% 29.98 in 10.0 mi South 8.1 mph - N/A   Clear
8:15 PM 35.6 °F 28.6 °F 28.4 °F 75% 29.97 in 10.0 mi South 9.2 mph - N/A   Clear
8:35 PM 35.6 °F 28.6 °F 28.4 °F 75% 29.97 in 10.0 mi South 9.2 mph - N/A   Clear
8:55 PM 37.4 °F 30.3 °F 28.4 °F 70% 29.97 in 10.0 mi South 10.4 mph - N/A   Clear
9:15 PM 35.6 °F 28.0 °F 28.4 °F 75% 29.97 in 10.0 mi South 10.4 mph - N/A   Clear
9:35 PM 35.6 °F 28.0 °F 28.4 °F 75% 29.96 in 10.0 mi South 10.4 mph - N/A   Clear
9:55 PM 35.6 °F 28.0 °F 26.6 °F 70% 29.96 in 10.0 mi South 10.4 mph - N/A   Clear
10:15 PM 35.6 °F 27.1 °F 26.6 °F 70% 29.96 in 10.0 mi South 12.7 mph - N/A   Clear
10:35 PM 35.6 °F 26.6 °F 26.6 °F 70% 29.95 in 10.0 mi South 13.8 mph - N/A   Clear
10:55 PM 33.8 °F 24.8 °F 26.6 °F 75% 29.94 in 10.0 mi South 12.7 mph - N/A   Clear
11:15 PM 33.8 °F 26.4 °F 26.6 °F 75% 29.94 in 10.0 mi South 9.2 mph - N/A   Clear
11:35 PM 33.8 °F 25.3 °F 26.6 °F 75% 29.95 in 10.0 mi South 11.5 mph - N/A   Clear
11:55 PM 32.0 °F 25.6 °F 26.6 °F 80% 29.96 in 10.0 mi South 6.9 mph - N/A   Clear